Location: Theydon Bois
(51.6750°N, 0.1050°E)
Time: 20:15:43
(UTC+00:00)

OTV 5 (USA 277) - Visible Passes

Search period start: 18 February 2018 00:00
Search period end: 28 February 2018 00:00
Orbit: 404 x 417 km, 43.0° (Epoch: 07 September)

Date Brightness Start Highest point End Pass type
(mag) Time Alt. Az. Time Alt. Az. Time Alt. Az.
22 Feb ? 05:43:38 10° SSE 05:44:13 10° SSE 05:44:47 10° SSE visible
24 Feb ? 05:37:00 10° SSW 05:38:57 15° SSE 05:40:55 10° SE visible
25 Feb ? 04:47:48 13° SSE 04:48:06 13° SSE 04:49:39 10° SE visible
26 Feb ? 05:31:51 12° SW 05:33:45 18° S 05:36:05 10° SE visible
27 Feb ? 04:43:07 17° SSE 04:43:07 17° SSE 04:45:04 10° SE visible
27 Feb ? 06:17:16 10° SW 06:19:29 17° S 06:21:41 10° SSE visible
